Weather History for KOGB - October, 2013

Change the Weather History Date:

Thursday, October 24, 2013

  Actual Average Record
Temperature  
Mean Temperature 53 °F 62 °F  
Max Temperature 66 °F 74 °F 87 °F (2001)
Min Temperature 39 °F 51 °F 31 °F (1974)
Degree Days  
Heating Degree Days 12 4  
Month to date heating degree days 18 51  
Since 1 July heating degree days 18 55  
Cooling Degree Days 0 2  
Month to date cooling degree days 115 83  
Year to date cooling degree days 2021 2077  
Growing Degree Days 2 (Base 50)    
Moisture  
Dew Point 36 °F    
Average Humidity 57    
Maximum Humidity 86    
Minimum Humidity 31    
Precipitation  
Precipitation 0.00 in 0.09 in 2.91 in (2008)
Month to date precipitation 0.41 2.90  
Year to date precipitation 49.32 40.00  
Sea Level Pressure  
Sea Level Pressure 30.14 in    
Wind  
Wind Speed 3 mph (NW)    
Max Wind Speed 12 mph    
Max Gust Speed 16 mph    
Visibility 10 miles    
Events      
T = Trace of Precipitation, MM = Missing Value Source: NWS Daily Summary

Daily Weather History Graph

Daily Weather History Graph

Search for Another Location

Airport or City:

Trip Planner

Search our weather history database for the weather conditions in past years. The results will help you decide how hot, cold, wet, or windy it might be!

Date:

Astronomy

Oct. 24, 2013 Rise Set
Actual Time 7:35 AM EDT 6:39 PM EDT
Civil Twilight 7:10 AM EDT 7:04 PM EDT
Nautical Twilight 6:41 AM EDT 7:33 PM EDT
Astronomical Twilight 6:12 AM EDT 8:02 PM EDT
Moon 11:08 PM EDT (10/24) 12:29 PM EDT (10/24)
Length of Visible Light 11h 54m
Length of Day
11h 03m
Waning Gibbous, 71% of the Moon is Illuminated
Oct 24
Waning Gibbous
Oct 26
Last Quarter
Nov 3
New
Nov 10
First Quarter
Nov 17
Full

Hourly Weather History & Observations

Time (EDT) Temp. Windchill Dew Point Humidity Pressure Visibility Wind Dir Wind Speed Gust Speed Precip Events Conditions
12:53 AM 51.1 °F - 30.9 °F 46% 30.06 in 10.0 mi North 8.1 mph - N/A   Clear
1:53 AM 48.9 °F - 32.0 °F 52% 30.08 in 10.0 mi NNW 3.5 mph - N/A   Clear
2:53 AM 46.9 °F - 35.1 °F 63% 30.09 in 10.0 mi NNW 4.6 mph - N/A   Clear
3:53 AM 45.0 °F - 34.0 °F 65% 30.10 in 10.0 mi Calm Calm - N/A   Clear
4:53 AM 43.0 °F 40.3 °F 36.0 °F 76% 30.10 in 10.0 mi NW 4.6 mph - N/A   Clear
5:53 AM 43.0 °F 41.3 °F 35.1 °F 74% 30.14 in 10.0 mi NNW 3.5 mph - N/A   Clear
6:53 AM 39.9 °F - 34.0 °F 79% 30.16 in 10.0 mi Calm Calm - N/A   Clear
7:53 AM 41.0 °F - 36.0 °F 82% 30.18 in 10.0 mi Calm Calm - N/A   Clear
8:53 AM 45.0 °F - 36.0 °F 71% 30.20 in 10.0 mi Calm Calm - N/A   Clear
9:53 AM 51.1 °F - 30.9 °F 46% 30.21 in 10.0 mi ENE 8.1 mph - N/A   Clear
10:53 AM 55.0 °F - 32.0 °F 42% 30.22 in 10.0 mi NE 4.6 mph - N/A   Clear
11:53 AM 55.9 °F - 30.9 °F 39% 30.21 in 10.0 mi Calm Calm - N/A   Clear
12:53 PM 59.0 °F - 32.0 °F 36% 30.19 in 10.0 mi Variable 3.5 mph - N/A   Clear
1:53 PM 62.1 °F - 32.0 °F 32% 30.15 in 10.0 mi Variable 6.9 mph - N/A   Clear
2:53 PM 63.0 °F - 32.0 °F 31% 30.12 in 10.0 mi South 6.9 mph - N/A   Clear
3:53 PM 64.9 °F - 33.1 °F 31% 30.11 in 10.0 mi WSW 8.1 mph - N/A   Clear
4:53 PM 64.9 °F - 33.1 °F 31% 30.10 in 10.0 mi SW 5.8 mph - N/A   Clear
5:53 PM 64.9 °F - 34.0 °F 32% 30.11 in 10.0 mi SW 5.8 mph - N/A   Clear
6:53 PM 57.0 °F - 39.9 °F 53% 30.12 in 10.0 mi Calm Calm - N/A   Clear
7:53 PM 53.1 °F - 42.1 °F 66% 30.14 in 10.0 mi Calm Calm - N/A   Clear
8:53 PM 50.0 °F - 43.0 °F 77% 30.15 in 10.0 mi Calm Calm - N/A   Clear
9:53 PM 48.0 °F - 43.0 °F 83% 30.16 in 10.0 mi Calm Calm - N/A   Clear
10:53 PM 46.9 °F - 43.0 °F 86% 30.16 in 10.0 mi Calm Calm - N/A   Partly Cloudy
11:53 PM 46.9 °F - 43.0 °F 86% 30.16 in 10.0 mi Calm Calm - N/A   Clear